Miscellaneous Local Product
Issued by NWS North Platte, NE

Home | Current Version | Previous Version | Text Only | Print | Product List | Glossary On
Versions: 1 2 3 4 5 6 7 8 9 10 11 12 13 14 15 16 17 18 19 20 21 22 23 24 25 26 27 28 29 30 31 32 33 34 35 36 37 38 39 40 41 42 43 44 45 46 47 48 49 50
000
AXUS43 KLBF 162210
MISLBF


WESTERN AND NORTH CENTRAL NEBRASKA HOURLY WEATHER ROUNDUP
NATIONAL WEATHER SERVICE NORTH PLATTE NE
400 PM CST MON JAN 16 2017

NOTE: "FAIR" INDICATES FEW OR NO CLOUDS BELOW 12,000 FEET WITH NO
SIGNIFICANT WEATHER AND/OR OBSTRUCTIONS TO VISIBILITY.

NOTE: STATIONS NOT REPORTING VARIABLES SUCH AS SKY/WEATHER OR
PRESSURE ARE PROVIDED BY RAWS AND APRS NETWORKS AND ARE NOT UNDER
NATIONAL WEATHER SERVICE QUALITY CONTROL.

...OBSERVATIONS IN AND NEAR THE EASTERN PANHANDLE OF NEBRASKA...

CITY           SKY/WX    TMP DP  RH WIND       PRES   REMARKS
PINE RIDGE     SUNNY     30  21  69 W7        30.06S WCI  23
CHADRON        SUNNY     33  21  61 W8        30.07S WCI  26
ALLIANCE       CLOUDY    38  15  39 N15       30.04R WCI  29
SIDNEY         CLOUDY    36  20  52 N16       30.03R WCI  26
CRESCENT LAKE    N/A     35  20  55 N16         N/A  WCI  25
$$

...OBSERVATIONS IN NORTHERN NEBRASKA AND FAR SOUTHERN SOUTH DAKOTA...

CITY           SKY/WX    TMP DP  RH WIND       PRES   REMARKS
WINNER         FAIR      30  15  53 NW15      30.04R WCI  19
VALENTINE      CLOUDY    34  15  46 NW15      30.02S WCI  24
THEDFORD       CLOUDY    38  24  56 N14       29.99S WCI  29
AINSWORTH      CLOUDY    35  23  60 NW14      29.99S WCI  26
O`NEILL        CLOUDY    32  29  90 NW12      29.98S WCI  23
ORD            CLOUDY    32  27  81 N14       29.95R WCI  22
BROKEN BOW     CLOUDY    33  30  88 N17       29.95R WCI  22
VALENTINE NWR    N/A     36  15  41 N15G23      N/A  WCI  27
BUTTE            N/A     30  21  69 W10         N/A  WCI  21
HALSEY           N/A     37  29  73 NW9G17      N/A  WCI  30
SARGENT          N/A     31  24  75 NW3         N/A
CHAMBERS         N/A     32  28  86 CALM        N/A
EWING            N/A     30  29  95 N8          N/A  WCI  22
$$

...OBSERVATIONS IN SOUTHWEST NEBRASKA AND FAR NORTHEAST COLORADO...

CITY           SKY/WX    TMP DP  RH WIND       PRES   REMARKS
HOLYOKE        FAIR      37  27  65 NW17      30.02R WCI  28
IMPERIAL       CLOUDY    35  28  75 NW16      30.00R WCI  25
OGALLALA       CLOUDY    37  29  75 NW13      30.01R WCI  28
NORTH PLATTE   CLOUDY    38  31  76 N10       29.98S WCI  31
MCCOOK         CLOUDY    35  33  92 N14       29.97R FOG     WCI  26
LEXINGTON      CLOUDY    34  31  90 N15       29.96R WCI  24
STAPLETON        N/A     34  30  85 CALM        N/A
GOTHENBURG       N/A     34  28  79 NW8         N/A  WCI  27
CALLAWAY         N/A     32  31  97 CALM        N/A
$$

...OBSERVATIONS IN CENTRAL LINCOLN COUNTY AREA...

CITY           SKY/WX    TMP DP  RH WIND       PRES   REMARKS
N.P. AIRPORT   CLOUDY    38  31  76 N10       29.98S WCI  31
N.P. DOWNTOWN    N/A     36  32  86 N9          N/A  WCI  29
N.P. SOUTHEAST   N/A     36  30  78 N6G16       N/A  WCI  31
N.P. HILLCREST   N/A     36  31  82 N12G18      N/A  WCI  28
$$

...SOME OBSERVATIONS FROM AROUND THE REGION...

CITY           SKY/WX    TMP DP  RH WIND       PRES   REMARKS
LARAMIE        CLOUDY    24  14  65 NE5       30.05R WCI  18
CHEYENNE       CLOUDY    35   8  32 N12       30.04R WCI  27
DENVER         CLOUDY    34  27  75 W8        30.06R WCI  27
SCOTTSBLUFF    CLOUDY    41  19  41 N13       30.06R
RAPID CITY     SUNNY     33  19  56 N18       30.04S WCI  22
BISMARCK       SUNNY     27  17  66 NW8       30.07R WCI  19
PIERRE         SUNNY     22  14  71 NW13      30.05S WCI  10
SIOUX FALLS    FRZ RAIN  32  28  85 N5        29.97F WCI  27
OMAHA          CLOUDY    35  31  85 N10       29.90R FOG     WCI  27
GRAND ISLAND   FRZ RAIN N/A N/A N/A N12       29.91S FOG
KANSAS CITY    CLOUDY    47  47 100 SW10      29.83R
WICHITA        CLOUDY    38  36  92 NW14      29.89R WCI  30
OKLAHOMA CITY  PTSUNNY   49  35  58 W16       29.96R
DALLAS         MOSUNNY   66  47  50 W10       29.97S
AMARILLO       CLOUDY    41  34  76 NW16G25   30.00R
DODGE CITY     CLOUDY    33  31  92 NW12      29.92R WCI  24
HAYS           CLOUDY    33  32  96 N13       29.92R WCI  24
GOODLAND       CLOUDY    32  31  96 N20G33    29.97R WCI  20
$$




USA.gov is the U.S. government's official web portal to all federal, state and local government web resources and services.